This is the latest recevied weather packets stored in our database for station/object KR4ELZ. If no packets are shown the sender has not sent any weather packets the latest 10 day(s).
| Time | Temp. | Humidity | Pressure | Rain* | Wind** | Luminosity | Snow |
|---|---|---|---|---|---|---|---|
| 1777989358 | 16.67° C | 78% | 1012.2 hPa | 0 mm | - | 53 W/m² | - |
| 1777989055 | 16.67° C | 78% | 1012.1 hPa | 0 mm | - | 52 W/m² | - |
| 1777988750 | 16.67° C | 78% | 1012.2 hPa | 0 mm | - | 69 W/m² | - |
| 1777988448 | 16.67° C | 78% | 1012.1 hPa | 0 mm | - | 69 W/m² | - |
| 1777988145 | 16.11° C | 80% | 1011.9 hPa | 0 mm | - | 81 W/m² | - |
| 1777987840 | 16.11° C | 79% | 1011.8 hPa | 0 mm | - | 75 W/m² | - |
| 1777987537 | 15.56° C | 80% | 1012 hPa | 0 mm | - | 59 W/m² | - |
| 1777987235 | 15.56° C | 81% | 1011.8 hPa | 0 mm | - | 52 W/m² | - |
| 1777986931 | 15.56° C | 81% | 1011.8 hPa | 0 mm | - | 45 W/m² | - |
| 1777986630 | 15.56° C | 81% | 1011.9 hPa | 0 mm | - | 39 W/m² | - |
| 1777986327 | 15.56° C | 81% | 1012 hPa | 0 mm | - | 30 W/m² | - |
| 1777986026 | 15.56° C | 81% | 1012 hPa | 0 mm | - | 24 W/m² | - |
| 1777985722 | 15.56° C | 80% | 1011.9 hPa | 0 mm | - | 25 W/m² | - |
| 1777985419 | 15.56° C | 81% | 1012 hPa | 0 mm | - | 27 W/m² | - |
| 1777985115 | 15.56° C | 81% | 1011.7 hPa | 0 mm | - | 29 W/m² | - |
| 1777984812 | 15.56° C | 80% | 1011.3 hPa | 0 mm | - | 31 W/m² | - |
| 1777984508 | 15.56° C | 80% | 1011.5 hPa | 0 mm | - | 34 W/m² | - |
| 1777984204 | 15.56° C | 81% | 1011.7 hPa | 0 mm | - | 36 W/m² | - |
| 1777983901 | 15.56° C | 81% | 1011.8 hPa | 0 mm | - | 33 W/m² | - |
| 1777983598 | 15° C | 81% | 1011.8 hPa | 0 mm | - | 32 W/m² | - |
| 1777983295 | 15° C | 81% | 1011.5 hPa | 0 mm | - | 33 W/m² | - |
| 1777982991 | 15° C | 81% | 1011.4 hPa | 0 mm | - | 34 W/m² | - |
| 1777982688 | 15° C | 82% | 1011.2 hPa | 0 mm | - | 32 W/m² | - |
| 1777982387 | 15° C | 82% | 1011.3 hPa | 0 mm | - | 27 W/m² | - |
| 1777982083 | 15° C | 83% | 1011.2 hPa | 0 mm | - | 24 W/m² | - |
* Rain latest hour (hover to see other rain measurements)
** Current wind speed in m/s (hover to see current wind gust speed)